Regional Weather Roundup
Issued by NWS

Home | Current Version | Previous Version | Graphics & Text | Print | Product List | Glossary Off
Versions: 1 2 3 4 5 6 7 8 9 10 11 12 13 14 15 16 17 18 19 20 21 22 23 24 25 26 27 28 29 30 31 32 33 34 35 36 37 38 39 40 41 42 43 44 45 46 47 48 49 50

000
ASUS43 KDMX 091801
RWRIA

WEATHER ROUNDUP FOR IOWA
NATIONAL WEATHER SERVICE DES MOINES IA
1200 PM CST FRI DEC 09 2016

NOTE: "FAIR" INDICATES FEW OR NO CLOUDS BELOW 12,000 FEET WITH NO
SIGNIFICANT WEATHER AND/OR OBSTRUCTIONS TO VISIBILITY.

* - THESE STATIONS ARE NOT NWS STATIONS...THUS NOT UNDER NWS
QUALITY CONTROL.  THEY ALSO DO NOT REPORT WEATHER SUCH
AS PRECIPITATION OR FOG.

IAZ001>003-012>014-020>022-031>034-043>046-091900-
   NORTHWEST IOWA

CITY           SKY/WX    TMP DP  RH WIND       PRES   REMARKS
CARROLL *      CLOUDY    18  10  73 W6        30.56F WCI   9
CHEROKEE *     SUNNY     15   9  78 W3        30.56F
DENISON *      CLOUDY    14   9  79 CALM      30.54F
LE MARS *      CLOUDY    14   5  67 CALM      30.57F
ORANGE CITY *  PTSUNNY   12   7  79 CALM      30.53F
SHELDON *      CLOUDY    12   9  85 W5        30.52F WCI   4
SIOUX CITY     CLOUDY    14   4  64 CALM      30.59F
6HR MIN TEMP:   4; 6HR MAX TEMP:  16;

SPENCER        SUNNY     15   8  73 W12       30.54F WCI   2
6HR MIN TEMP:   0; 6HR MAX TEMP:  15;

STORM LAKE *   SUNNY     12   9  85 W7        30.53F WCI   2
$$

IAZ055>058-069>071-079>083-090>094-091900-
   SOUTHWEST IOWA

CITY           SKY/WX    TMP DP  RH WIND       PRES   REMARKS
ATLANTIC *     CLOUDY    18  10  73 S5        30.57F WCI  11
AUDUBON *      MOSUNNY   21  12  68 SW5       30.55F WCI  15
CLARINDA *     CLOUDY    19  14  79 S6        30.61F WCI  11
COUNCIL BLFS * MOSUNNY   18  10  73 SW5       30.56F WCI  11
CRESTON *      MOSUNNY   18  12  79 SW5       30.57F WCI  11
HARLAN  *      CLOUDY    18  10  73 S7        30.60F WCI   8
LAMONI         MOSUNNY   20  12  71 SW3       30.58F
6HR MIN TEMP:   6; 6HR MAX TEMP:  21;

RED OAK *      CLOUDY    19  12  73 S5        30.59F WCI  13
SHENANDOAH *   CLOUDY    19  14  79 S6        30.60F WCI  11
$$

IAZ047>049-059>061-072>074-084-091900-
   CENTRAL IOWA

CITY           SKY/WX    TMP DP  RH WIND       PRES   REMARKS
AMES           CLOUDY    18  11  74 CALM      30.57F
6HR MIN TEMP:   6; 6HR MAX TEMP:  19;

ANKENY *       MOSUNNY   19   9  63 W7        30.60F WCI  10
BOONE *        MOSUNNY   18   9  68 VRB3      30.54F
CHARITON *     CLOUDY    19  12  73 SW3       30.58F
DES MOINES     CLOUDY    20   9  62 CALM      30.59F
6HR MIN TEMP:   9; 6HR MAX TEMP:  21;

GRINNELL*      MOSUNNY   18  11  75 CALM      30.58F
KNOXVILLE *    MOSUNNY   18   9  68 VRB5      30.58F WCI  11
MARSHALLTOWN   MOSUNNY   18  11  74 NW8       30.56F WCI   8
6HR MIN TEMP:   9; 6HR MAX TEMP:  19;

NEWTON *       MOSUNNY   18  10  73 W6        30.58S WCI   9
PELLA *        CLOUDY    21  11  66 W6        30.61S WCI  13
PERRY *          N/A     17  13  81 W6        30.58F WCI   9
$$

IAZ004>006-015-016-023>025-035-036-091900-
   NORTH CENTRAL IOWA

CITY           SKY/WX    TMP DP  RH WIND       PRES   REMARKS
ALGONA *       MOSUNNY   16   9  73 NW5       30.54F WCI   9
CLARION *      MOSUNNY   18  10  73 W6        30.55F WCI   9
ESTHERVILLE    MOSUNNY   14   9  80 W7        30.54F WCI   4
6HR MIN TEMP:   0; 6HR MAX TEMP:  14;

FORT DODGE *   MOSUNNY   16   9  73 W5        30.56F WCI   9
MASON CITY     CLOUDY    18  10  71 W7        30.55F WCI   9
6HR MIN TEMP:   7; 6HR MAX TEMP:  19;

WEBSTER CITY * MOSUNNY   16  12  86 VRB5      30.54F WCI   9
IOWA FALLS *     N/A     18  12  79 W8        30.57F WCI   7
$$

IAZ007>011-017>019-026>030-037>042-050>054-066-091900-
   NORTHEAST IOWA

CITY           SKY/WX    TMP DP  RH WIND       PRES   REMARKS
CEDAR RAPIDS   SUNNY     17  13  84 W7        30.57F WCI   8
6HR MIN TEMP:  10; 6HR MAX TEMP:  18;

CHARLES CITY * MOSUNNY   14   9  79 W5        30.55F WCI   6
CLINTON *      SUNNY     24  16  71 VRB6      30.57F WCI  17
DECORAH *      SUNNY     16  10  79 VRB3      30.52F
DUBUQUE        SUNNY     19  12  74 W6        30.53F WCI  11
6HR MIN TEMP:  12; 6HR MAX TEMP:  19; 6HR PCP: TRACE;

MONTICELLO *   SUNNY     18  10  73 W7        30.56F WCI   8
OELWEIN *      MOSUNNY   16  10  79 CALM      30.54F
WATERLOO       SUNNY     19  10  68 W5        30.56F WCI  12
6HR MIN TEMP:   8; 6HR MAX TEMP:  19;

$$

IAZ064-065-067-068-078-091900-
   EAST CENTRAL IOWA

CITY           SKY/WX    TMP DP  RH WIND       PRES   REMARKS
DAVENPORT      SUNNY     22  14  71 W7        30.57F WCI  13
6HR MIN TEMP:  16; 6HR MAX TEMP:  22;

IOWA CITY      SUNNY     22  11  62 NW8       30.61F WCI  12
6HR MIN TEMP:  12; 6HR MAX TEMP:  22;

MUSCATINE *    MOSUNNY   23  12  63 W8        30.61F WCI  14
QUAD CITIES    SUNNY     23  13  65 W8        30.57F WCI  14
6HR MIN TEMP:  18; 6HR MAX TEMP:  24;

$$

IAZ062-063-075>077-085>089-095>099-091900-
   SOUTHEAST IOWA

CITY           SKY/WX    TMP DP  RH WIND       PRES   REMARKS
BURLINGTON     MOSUNNY   23  12  62 W7        30.59F WCI  15
6HR MIN TEMP:  18; 6HR MAX TEMP:  23; 6HR PCP: TRACE;

FAIRFIELD *    PTSUNNY   19  10  68 SW7       30.59F WCI  10
FORT MADISON * CLOUDY    19  12  73 W7        30.61F WCI  10
KEOKUK *       CLOUDY    23  12  63 CALM      30.60F
OSKALOOSA *      N/A     19  11  71 CALM      30.59F
CENTERVILLE *    N/A     23  14  68 CALM      30.61F
OTTUMWA        CLOUDY    19   9  65 W5        30.59F WCI  12
6HR MIN TEMP:  14; 6HR MAX TEMP:  20;

WASHINGTON *   PTSUNNY   21  12  68 NW8       30.60F WCI  12
$$

ABBREVIATIONS USED IN REMARKS
   TC - TEMPERATURES IN CELSIUS
  WCI - WIND CHILL INDEX
   HX - HEAT INDEX
  VSB - VISIBILITY
$$





USA.gov is the U.S. government's official web portal to all federal, state and local government web resources and services.